When you browse on this site, cookies collect data to enhance your experience and personalize the content and advertising you see.
Visit our Privacy Policy to learn more. By continuing to use the site, you agree to this use of cookies and data.
  • In Romania
  • List of Countries
  • For 7 days
  • Water Temperature
  • Satellite Maps
  • Weather Map
  • Weather Widgets
  • user-avatar
    Login

    Hourly Weather Mayrhofen

    Today, 24 February, Sunday

    Time Temperature Precipitation Wind Pressure Humidity
    00:00 -7°C° 0 mm 2 mps 624 mmHg 54%
    01:00 -6°C° 0 mm 1 mps 624 mmHg 51%
    02:00 -6°C° 0 mm 1 mps 624 mmHg 51%
    03:00 -6°C° 0 mm 1 mps 624 mmHg 51%
    04:00 -4°C° 0 mm 1 mps 624 mmHg 50%
    05:00 -4°C° 0 mm 1 mps 624 mmHg 50%
    06:00 -4°C° 0 mm 1 mps 624 mmHg 51%
    07:00 -6°C° 0 mm 2 mps 624 mmHg 51%
    08:00 -4°C° 0 mm 2 mps 624 mmHg 56%
    09:00 -2°C° 0 mm 2 mps 625 mmHg 62%
    10:00 +2°C° 0 mm 2 mps 626 mmHg 67%
    11:00 +2°C° 0 mm 2 mps 626 mmHg 70%
    12:00 +3°C° 0 mm 2 mps 626 mmHg 73%
    13:00 +3°C° 0 mm 2 mps 626 mmHg 76%
    14:00 +3°C° 0 mm 2 mps 626 mmHg 77%
    15:00 +3°C° 0 mm 2 mps 626 mmHg 77%
    16:00 +2°C° 0 mm 2 mps 626 mmHg 77%
    17:00 +1°C° 0 mm 2 mps 625 mmHg 77%
    18:00 -2°C° 0 mm 2 mps 625 mmHg 77%
    19:00 -3°C° 0 mm 2 mps 625 mmHg 77%
    20:00 -4°C° 0 mm 2 mps 625 mmHg 78%
    21:00 -4°C° 0 mm 2 mps 625 mmHg 79%
    22:00 -4°C° 0 mm 2 mps 626 mmHg 80%
    23:00 -4°C° 0 mm 2 mps 626 mmHg 80%

    Tomorrow, 25 February, Monday

    Time Temperature Precipitation Wind Pressure Humidity
    00:00 -4°C° 0 mm 2 mps 626 mmHg 81%
    01:00 -2°C° 0 mm 1 mps 626 mmHg 81%
    02:00 -2°C° 0 mm 1 mps 626 mmHg 81%
    03:00 -2°C° 0 mm 1 mps 625 mmHg 81%
    04:00 -2°C° 0 mm 1 mps 625 mmHg 80%
    05:00 -2°C° 0 mm 1 mps 625 mmHg 80%
    06:00 -2°C° 0 mm 1 mps 625 mmHg 79%
    07:00 -2°C° 0 mm 1 mps 625 mmHg 79%
    08:00 0°C° 0 mm 1 mps 626 mmHg 80%
    09:00 +2°C° 0 mm 1 mps 626 mmHg 81%
    10:00 +3°C° 0 mm 1 mps 627 mmHg 82%
    11:00 +3°C° 0 mm 2 mps 627 mmHg 83%
    12:00 +3°C° 0 mm 2 mps 627 mmHg 83%
    13:00 +4°C° 0 mm 2 mps 627 mmHg 84%
    14:00 +4°C° 0 mm 2 mps 627 mmHg 86%
    15:00 +3°C° 0 mm 2 mps 626 mmHg 87%
    16:00 +3°C° 0 mm 2 mps 626 mmHg 88%
    17:00 +2°C° 0 mm 2 mps 626 mmHg 86%
    18:00 -1°C° 0 mm 2 mps 625 mmHg 84%
    19:00 0°C° 0 mm 1 mps 625 mmHg 82%
    20:00 0°C° 0 mm 1 mps 625 mmHg 77%
    21:00 0°C° 0 mm 1 mps 625 mmHg 72%
    22:00 0°C° 0 mm 1 mps 626 mmHg 66%
    23:00 0°C° 0 mm 1 mps 626 mmHg 64%

    Day after tomorrow, 26 February, Tuesday

    Time Temperature Precipitation Wind Pressure Humidity
    00:00 -1°C° 0 mm 1 mps 626 mmHg 63%
    01:00 -3°C° 0 mm 2 mps 625 mmHg 61%
    02:00 -3°C° 0 mm 2 mps 625 mmHg 58%
    03:00 -3°C° 0 mm 2 mps 625 mmHg 54%
    04:00 -3°C° 0 mm 2 mps 625 mmHg 51%
    05:00 -3°C° 0 mm 2 mps 625 mmHg 48%
    06:00 -3°C° 0 mm 2 mps 624 mmHg 45%
    07:00 -3°C° 0 mm 2 mps 624 mmHg 41%
    08:00 -1°C° 0 mm 2 mps 625 mmHg 45%
    09:00 +3°C° 0 mm 1 mps 625 mmHg 49%
    10:00 +5°C° 0 mm 1 mps 626 mmHg 53%
    11:00 +5°C° 0 mm 2 mps 626 mmHg 56%
    12:00 +5°C° 0 mm 2 mps 626 mmHg 58%
    13:00 +6°C° 0 mm 2 mps 626 mmHg 60%
    14:00 +5°C° 0 mm 2 mps 626 mmHg 61%
    15:00 +5°C° 0 mm 2 mps 625 mmHg 62%
    16:00 +4°C° 0 mm 2 mps 625 mmHg 62%
    17:00 +3°C° 0 mm 2 mps 624 mmHg 59%
    18:00 +1°C° 0 mm 2 mps 624 mmHg 57%
    19:00 -2°C° 0 mm 2 mps 624 mmHg 54%
    20:00 -2°C° 0 mm 2 mps 624 mmHg 52%
    21:00 -2°C° 0 mm 2 mps 624 mmHg 50%
    22:00 -2°C° 0 mm 2 mps 624 mmHg 48%
    23:00 -2°C° 0 mm 2 mps 624 mmHg 47%

    27 February, Wednesday

    Time Temperature Precipitation Wind Pressure Humidity
    00:00 -2°C° 0 mm 2 mps 624 mmHg 45%
    01:00 -1°C° 0 mm 2 mps 624 mmHg 44%
    02:00 -1°C° 0 mm 2 mps 623 mmHg 44%
    03:00 -1°C° 0 mm 2 mps 623 mmHg 44%
    04:00 +1°C° 0 mm 1 mps 623 mmHg 44%
    05:00 +1°C° 0 mm 1 mps 623 mmHg 46%
    06:00 +1°C° 0 mm 1 mps 623 mmHg 48%
    07:00 +1°C° 0 mm 1 mps 623 mmHg 50%
    08:00 +3°C° 0 mm 1 mps 623 mmHg 55%
    09:00 +4°C° 0 mm 1 mps 623 mmHg 61%
    10:00 +6°C° 0 mm 1 mps 624 mmHg 66%
    11:00 +7°C° 0 mm 1 mps 624 mmHg 65%
    12:00 +8°C° 0 mm 1 mps 624 mmHg 65%
    13:00 +9°C° 0 mm 1 mps 624 mmHg 65%
    14:00 +9°C° 0 mm 1 mps 624 mmHg 67%
    15:00 +7°C° 0 mm 0 mps 623 mmHg 70%
    16:00 +7°C° 0 mm 0 mps 623 mmHg 72%
    17:00 +6°C° 0 mm 1 mps 622 mmHg 71%
    18:00 +5°C° 0 mm 1 mps 622 mmHg 70%
    19:00 +3°C° 0 mm 1 mps 621 mmHg 68%
    20:00 +3°C° 0 mm 1 mps 621 mmHg 66%
    21:00 +3°C° 0 mm 1 mps 621 mmHg 64%
    22:00 +3°C° 0 mm 1 mps 621 mmHg 61%
    23:00 +3°C° 0 mm 1 mps 621 mmHg 59%

    28 February, Thursday

    Time Temperature Precipitation Wind Pressure Humidity
    00:00 +3°C° 0 mm 1 mps 621 mmHg 57%
    01:00 +2°C° 0 mm 1 mps 621 mmHg 56%
    02:00 +2°C° 0 mm 1 mps 620 mmHg 55%
    03:00 +2°C° 0 mm 1 mps 620 mmHg 54%
    04:00 +2°C° 0 mm 1 mps 620 mmHg 53%
    05:00 +2°C° 0 mm 1 mps 620 mmHg 52%
    06:00 +2°C° 0 mm 1 mps 620 mmHg 52%
    07:00 +2°C° 0 mm 1 mps 619 mmHg 52%
    08:00 +3°C° 0 mm 1 mps 620 mmHg 55%
    09:00 +5°C° 0 mm 1 mps 620 mmHg 58%
    10:00 +7°C° 0 mm 1 mps 621 mmHg 61%
    11:00 +8°C° 0 mm 1 mps 621 mmHg 60%
    12:00 +9°C° 0 mm 1 mps 621 mmHg 59%
    13:00 +9°C° 0 mm 1 mps 621 mmHg 59%
    14:00 +9°C° 0 mm 1 mps 620 mmHg 61%
    15:00 +8°C° 0 mm 1 mps 620 mmHg 63%
    16:00 +7°C° 0 mm 2 mps 620 mmHg 65%
    17:00 +6°C° 0 mm 1 mps 619 mmHg 70%
    18:00 +4°C° 0 mm 1 mps 619 mmHg 75%
    19:00 +2°C° 0 mm 1 mps 618 mmHg 80%
    20:00 +2°C° 0 mm 1 mps 618 mmHg 81%
    21:00 +2°C° 0 mm 1 mps 618 mmHg 83%
    22:00 +1°C° 0 mm 1 mps 618 mmHg 84%
    23:00 +1°C° 0 mm 1 mps 618 mmHg 84%

    1 March, Friday

    Time Temperature Precipitation Wind Pressure Humidity
    00:00 +1°C° 0 mm 1 mps 618 mmHg 83%
    01:00 0°C° 0 mm 1 mps 618 mmHg 83%
    02:00 0°C° 0 mm 1 mps 617 mmHg 82%
    03:00 0°C° 0 mm 1 mps 617 mmHg 81%
    04:00 0°C° 0 mm 1 mps 617 mmHg 80%
    05:00 0°C° 0 mm 1 mps 617 mmHg 81%
    06:00 -1°C° 0 mm 1 mps 617 mmHg 81%
    07:00 -1°C° 0 mm 1 mps 617 mmHg 82%
    08:00 +1°C° 0 mm 1 mps 617 mmHg 78%
    09:00 +2°C° 0 mm 1 mps 617 mmHg 75%
    10:00 +3°C° 0 mm 2 mps 618 mmHg 72%
    11:00 +3°C° 0 mm 2 mps 618 mmHg 70%
    12:00 +4°C° 0 mm 2 mps 618 mmHg 69%
    13:00 +5°C° 0 mm 2 mps 618 mmHg 68%
    14:00 +4°C° 0 mm 2 mps 617 mmHg 71%
    15:00 +4°C° 0 mm 2 mps 617 mmHg 74%
    16:00 +4°C° 0 mm 2 mps 616 mmHg 78%
    17:00 +3°C° 0 mm 2 mps 616 mmHg 83%
    18:00 +2°C° 0 mm 2 mps 616 mmHg 89%
    19:00 +1°C° 0 mm 2 mps 616 mmHg 94%
    20:00 -1°C° 0 mm 2 mps 616 mmHg 95%
    21:00 -1°C° 0 mm 2 mps 616 mmHg 95%
    22:00 0°C° 0 mm 1 mps 616 mmHg 96%
    23:00 0°C° 0 mm 1 mps 616 mmHg 95%
    Show more